• In Hungary
  • List of Countries
  • For 7 days
  • Water Temperature
  • Satellite Maps
  • Weather Map
  • News
  • Weather Widgets
  • user-avatar
    Login

    Hourly Weather Dretuni

    Today, 25 September, Tuesday

    Time Temperature Precipitation Wind Pressure Humidity
    00:00 +6°C° 1.6 mm 4 mps 731 mmHg 95%
    01:00 +6°C° 1.6 mm 4 mps 731 mmHg 94%
    02:00 +6°C° 1.6 mm 5 mps 730 mmHg 94%
    03:00 +6°C° 1.2 mm 5 mps 731 mmHg 93%
    04:00 +5°C° 1.2 mm 6 mps 731 mmHg 92%
    05:00 +5°C° 1.2 mm 6 mps 731 mmHg 91%
    06:00 +5°C° 0.6 mm 6 mps 732 mmHg 90%
    07:00 +5°C° 0.6 mm 6 mps 732 mmHg 89%
    08:00 +5°C° 0.6 mm 6 mps 733 mmHg 88%
    09:00 +5°C° 0.3 mm 6 mps 734 mmHg 84%
    10:00 +7°C° 0.3 mm 6 mps 735 mmHg 81%
    11:00 +6°C° 0.3 mm 7 mps 736 mmHg 77%
    12:00 +8°C° 0.1 mm 6 mps 736 mmHg 73%
    13:00 +8°C° 0.1 mm 6 mps 737 mmHg 69%
    14:00 +8°C° 0.1 mm 6 mps 738 mmHg 65%
    15:00 +8°C° 0 mm 5 mps 739 mmHg 66%
    16:00 +7°C° 0 mm 5 mps 739 mmHg 68%
    17:00 +7°C° 0 mm 4 mps 740 mmHg 69%
    18:00 +6°C° 0 mm 4 mps 741 mmHg 72%
    19:00 +5°C° 0 mm 5 mps 742 mmHg 75%
    20:00 +5°C° 0 mm 5 mps 743 mmHg 78%
    21:00 +4°C° 0 mm 4 mps 743 mmHg 79%
    22:00 +4°C° 0 mm 4 mps 744 mmHg 80%
    23:00 +3°C° 0 mm 4 mps 745 mmHg 82%

    Tomorrow, 26 September, Wednesday

    Time Temperature Precipitation Wind Pressure Humidity
    00:00 +3°C° 0 mm 4 mps 745 mmHg 81%
    01:00 +3°C° 0 mm 4 mps 746 mmHg 80%
    02:00 +3°C° 0 mm 4 mps 746 mmHg 80%
    03:00 +2°C° 0 mm 3 mps 747 mmHg 80%
    04:00 +2°C° 0 mm 3 mps 747 mmHg 80%
    05:00 +1°C° 0 mm 3 mps 748 mmHg 80%
    06:00 +2°C° 0 mm 3 mps 748 mmHg 78%
    07:00 +3°C° 0 mm 3 mps 748 mmHg 75%
    08:00 +4°C° 0 mm 3 mps 748 mmHg 73%
    09:00 +5°C° 0 mm 4 mps 748 mmHg 69%
    10:00 +7°C° 0 mm 4 mps 748 mmHg 65%
    11:00 +10°C° 0 mm 4 mps 748 mmHg 61%
    12:00 +9°C° 0 mm 5 mps 747 mmHg 58%
    13:00 +10°C° 0 mm 5 mps 747 mmHg 55%
    14:00 +10°C° 0 mm 5 mps 746 mmHg 52%
    15:00 +9°C° 0 mm 5 mps 745 mmHg 55%
    16:00 +10°C° 0 mm 4 mps 745 mmHg 58%
    17:00 +8°C° 0 mm 4 mps 744 mmHg 61%
    18:00 +7°C° 0.5 mm 5 mps 743 mmHg 68%
    19:00 +7°C° 0.5 mm 6 mps 741 mmHg 75%
    20:00 +5°C° 0.5 mm 6 mps 740 mmHg 81%
    21:00 +5°C° 1.7 mm 7 mps 739 mmHg 83%
    22:00 +5°C° 1.7 mm 7 mps 737 mmHg 86%
    23:00 +5°C° 1.7 mm 7 mps 736 mmHg 88%

    Day after tomorrow, 27 September, Thursday

    Time Temperature Precipitation Wind Pressure Humidity
    00:00 +5°C° 1.7 mm 7 mps 735 mmHg 89%
    01:00 +7°C° 1.7 mm 6 mps 734 mmHg 90%
    02:00 +7°C° 1.7 mm 6 mps 733 mmHg 91%
    03:00 +7°C° 0.6 mm 5 mps 733 mmHg 90%
    04:00 +7°C° 0.6 mm 5 mps 733 mmHg 89%
    05:00 +6°C° 0.6 mm 4 mps 733 mmHg 88%
    06:00 +6°C° 0 mm 4 mps 733 mmHg 85%
    07:00 +7°C° 0 mm 5 mps 734 mmHg 83%
    08:00 +7°C° 0 mm 5 mps 734 mmHg 81%
    09:00 +7°C° 0.2 mm 6 mps 734 mmHg 78%
    10:00 +8°C° 0.2 mm 6 mps 734 mmHg 74%
    11:00 +8°C° 0.2 mm 6 mps 734 mmHg 71%
    12:00 +8°C° 0.3 mm 6 mps 735 mmHg 70%
    13:00 +8°C° 0.3 mm 7 mps 735 mmHg 70%
    14:00 +8°C° 0.3 mm 7 mps 736 mmHg 69%
    15:00 +7°C° 0.1 mm 6 mps 736 mmHg 70%
    16:00 +7°C° 0.1 mm 5 mps 736 mmHg 72%
    17:00 +6°C° 0.1 mm 5 mps 737 mmHg 73%
    18:00 +6°C° 0 mm 4 mps 737 mmHg 75%
    19:00 +5°C° 0 mm 4 mps 738 mmHg 76%
    20:00 +4°C° 0 mm 4 mps 738 mmHg 78%
    21:00 +4°C° 0 mm 4 mps 738 mmHg 79%
    22:00 +4°C° 0 mm 4 mps 739 mmHg 79%
    23:00 +4°C° 0 mm 4 mps 739 mmHg 80%

    28 September, Friday

    Time Temperature Precipitation Wind Pressure Humidity
    00:00 +4°C° 0 mm 3 mps 739 mmHg 83%
    01:00 +3°C° 0 mm 3 mps 739 mmHg 85%
    02:00 +3°C° 0 mm 3 mps 739 mmHg 88%
    03:00 +3°C° 0.1 mm 3 mps 738 mmHg 88%
    04:00 +3°C° 0.1 mm 3 mps 738 mmHg 88%
    05:00 +5°C° 0.1 mm 2 mps 737 mmHg 87%
    06:00 +4°C° 1.9 mm 3 mps 736 mmHg 89%
    07:00 +4°C° 1.9 mm 4 mps 734 mmHg 91%
    08:00 +4°C° 1.9 mm 4 mps 733 mmHg 93%
    09:00 +6°C° 2.4 mm 5 mps 732 mmHg 92%
    10:00 +7°C° 2.4 mm 5 mps 731 mmHg 91%
    11:00 +9°C° 2.4 mm 6 mps 730 mmHg 90%
    12:00 +8°C° 0.4 mm 5 mps 730 mmHg 89%
    13:00 +8°C° 0.4 mm 5 mps 731 mmHg 87%
    14:00 +7°C° 0.4 mm 5 mps 731 mmHg 86%
    15:00 +6°C° 0.1 mm 5 mps 732 mmHg 86%
    16:00 +5°C° 0.1 mm 4 mps 734 mmHg 86%
    17:00 +4°C° 0.1 mm 4 mps 735 mmHg 86%
    18:00 +3°C° 0 mm 4 mps 736 mmHg 86%
    19:00 +2°C° 0 mm 3 mps 738 mmHg 86%
    20:00 +1°C° 0 mm 3 mps 739 mmHg 86%
    21:00 +1°C° 0 mm 3 mps 740 mmHg 87%
    22:00 +1°C° 0 mm 3 mps 740 mmHg 89%
    23:00 +1°C° 0 mm 2 mps 741 mmHg 90%

    29 September, Saturday

    Time Temperature Precipitation Wind Pressure Humidity
    00:00 +1°C° 0 mm 2 mps 742 mmHg 91%
    01:00 +1°C° 0 mm 2 mps 742 mmHg 92%
    02:00 +1°C° 0 mm 2 mps 743 mmHg 93%
    03:00 +1°C° 0 mm 2 mps 744 mmHg 93%
    04:00 +1°C° 0 mm 2 mps 744 mmHg 94%
    05:00 -1°C° 0 mm 2 mps 744 mmHg 94%
    06:00 +1°C° 0 mm 2 mps 745 mmHg 89%
    07:00 +2°C° 0 mm 2 mps 745 mmHg 85%
    08:00 +3°C° 0 mm 2 mps 746 mmHg 81%
    09:00 +4°C° 0 mm 2 mps 747 mmHg 75%
    10:00 +5°C° 0 mm 2 mps 747 mmHg 69%
    11:00 +6°C° 0 mm 2 mps 748 mmHg 63%
    12:00 +6°C° 0 mm 2 mps 748 mmHg 59%
    13:00 +7°C° 0 mm 3 mps 748 mmHg 55%
    14:00 +7°C° 0 mm 3 mps 748 mmHg 52%
    15:00 +5°C° 0 mm 3 mps 749 mmHg 57%
    16:00 +5°C° 0 mm 2 mps 749 mmHg 62%
    17:00 +4°C° 0 mm 2 mps 750 mmHg 67%
    18:00 +3°C° 0 mm 2 mps 750 mmHg 70%
    19:00 +3°C° 0 mm 1 mps 751 mmHg 73%
    20:00 +2°C° 0 mm 1 mps 751 mmHg 76%
    21:00 +1°C° 0 mm 1 mps 751 mmHg 77%
    22:00 +1°C° 0 mm 1 mps 752 mmHg 79%
    23:00 0°C° 0 mm 1 mps 752 mmHg 80%

    30 September, Sunday

    Time Temperature Precipitation Wind Pressure Humidity
    00:00 0°C° 0 mm 1 mps 752 mmHg 81%
    01:00 0°C° 0 mm 1 mps 752 mmHg 82%
    02:00 0°C° 0 mm 1 mps 753 mmHg 82%
    03:00 0°C° 0 mm 1 mps 753 mmHg 84%
    04:00 -2°C° 0 mm 2 mps 753 mmHg 86%
    05:00 -2°C° 0 mm 2 mps 753 mmHg 88%
    06:00 +1°C° 0 mm 2 mps 753 mmHg 82%
    07:00 +2°C° 0 mm 2 mps 753 mmHg 77%
    08:00 +2°C° 0 mm 3 mps 753 mmHg 72%
    09:00 +4°C° 0 mm 3 mps 752 mmHg 67%
    10:00 +5°C° 0 mm 4 mps 752 mmHg 62%
    11:00 +7°C° 0 mm 4 mps 752 mmHg 57%
    12:00 +7°C° 0 mm 4 mps 752 mmHg 56%
    13:00 +8°C° 0 mm 4 mps 751 mmHg 55%
    14:00 +8°C° 0 mm 4 mps 751 mmHg 55%
    15:00 +7°C° 0 mm 4 mps 750 mmHg 60%
    16:00 +7°C° 0 mm 3 mps 750 mmHg 65%
    17:00 +5°C° 0 mm 3 mps 750 mmHg 71%
    18:00 +5°C° 0 mm 3 mps 749 mmHg 72%
    19:00 +4°C° 0 mm 3 mps 749 mmHg 74%
    20:00 +4°C° 0 mm 4 mps 749 mmHg 75%
    21:00 +4°C° 0 mm 4 mps 749 mmHg 76%
    22:00 +4°C° 0 mm 4 mps 748 mmHg 77%
    23:00 +4°C° 0 mm 4 mps 748 mmHg 78%
    Show more